EW5545 Weather Reports


Display with metric or nautical units.
time (UTC)temp
F
wind
direction
speed
MPH
gust
MPH
rain 1hr
in
rain 24hr
in
rain mn
in
humidity
%
barometer
mb
20260906141005 91 49 6.0 12.0 0.00 0.00 0.00 38 1019.2
20260906140506 92 49 4.0 13.0 0.00 0.00 0.00 39 1019.1
20260906140006 91 46 3.0 13.0 0.00 0.00 0.00 39 1019.2
20260906135506 91 45 4.0 12.0 0.00 0.00 0.00 37 1019.2
20260906135006 92 44 6.0 10.0 0.00 0.00 0.00 37 1019.2
20260906134506 92 40 5.0 12.0 0.00 0.00 0.00 37 1019.2
20260906134006 92 51 3.0 10.0 0.00 0.00 0.00 38 1019.2
20260906133506 92 47 4.0 9.0 0.00 0.00 0.00 35 1019.3
20260906133005 92 40 6.0 12.0 0.00 0.00 0.00 35 1019.3
20260906132505 92 55 2.0 12.0 0.00 0.00 0.00 35 1019.3
20260906131006 91 51 7.0 12.0 0.00 0.00 0.00 37 1019.4
20260906130506 91 54 7.0 13.0 0.00 0.00 0.00 38 1019.4
20260906130006 91 49 6.0 12.0 0.00 0.00 0.00 38 1019.4
20260906125506 91 44 8.0 14.0 0.00 0.00 0.00 36 1019.5
20260906125005 92 40 6.0 10.0 0.00 0.00 0.00 35 1019.5
20260906124511 92 47 3.0 9.0 0.00 0.00 0.00 36 1019.5
20260906124011 91 49 5.0 10.0 0.00 0.00 0.00 36 1019.5
20260906123507 91 31 3.0 12.0 0.00 0.00 0.00 38 1019.5
20260906122006 91 49 3.0 6.0 0.00 0.00 0.00 37 1019.6
20260906121506 91 39 5.0 8.0 0.00 0.00 0.00 37 1019.6
20260906121006 91 38 4.0 12.0 0.00 0.00 0.00 38 1019.6
20260906120506 91 41 6.0 12.0 0.00 0.00 0.00 36 1019.6
20260906120006 91 57 2.0 7.0 0.00 0.00 0.00 38 1019.6
20260906115505 90 50 3.0 14.0 0.00 0.00 0.00 42 1019.6
20260906115007 90 44 5.0 12.0 0.00 0.00 0.00 43 1019.7
20260906114506 90 42 5.0 17.0 0.00 0.00 0.00 45 1019.6
20260906114006 90 43 5.0 18.0 0.00 0.00 0.00 46 1019.6
20260906113005 89 46 6.0 12.0 0.00 0.00 0.00 50 1019.6
20260906112505 90 44 6.0 13.0 0.00 0.00 0.00 49 1019.6
20260906112006 89 43 6.0 13.0 0.00 0.00 0.00 49 1019.6
20260906111506 89 48 6.0 12.0 0.00 0.00 0.00 48 1019.6
20260906111006 90 47 7.0 13.0 0.00 0.00 0.00 48 1019.6
20260906110505 90 43 10.0 15.0 0.00 0.00 0.00 46 1019.6
20260906110006 90 42 7.0 14.0 0.00 0.00 0.00 46 1019.6
20260906105505 90 34 7.0 14.0 0.00 0.00 0.00 45 1019.5
20260906104512 90 56 5.0 12.0 0.00 0.00 0.00 43 1019.6
20260906104005 90 38 5.0 8.0 0.00 0.00 0.00 44 1019.6
20260906103506 90 58 6.0 12.0 0.00 0.00 0.00 44 1019.6
20260906103007 90 47 5.0 7.0 0.00 0.00 0.00 44 1019.6
20260906102507 89 42 6.0 12.0 0.00 0.00 0.00 44 1019.6
20260906102006 89 40 6.0 13.0 0.00 0.00 0.00 43 1019.6
20260906101505 89 50 5.0 10.0 0.00 0.00 0.00 45 1019.6
20260906101006 89 35 4.0 12.0 0.00 0.00 0.00 44 1019.6
20260906100506 89 40 6.0 13.0 0.00 0.00 0.00 45 1019.6
20260906100006 89 43 3.0 12.0 0.00 0.00 0.00 43 1019.6
20260906095006 89 41 7.0 10.0 0.00 0.00 0.00 44 1019.7
20260906094505 89 46 3.0 9.0 0.00 0.00 0.00 45 1019.6
20260906094007 88 46 5.0 12.0 0.00 0.00 0.00 44 1019.7
20260906093507 88 54 3.0 12.0 0.00 0.00 0.00 47 1019.7
20260906093006 88 43 4.0 12.0 0.00 0.00 0.00 47 1019.7
20260906092506 88 32 3.0 7.0 0.00 0.00 0.00 45 1019.7
20260906092006 88 43 3.0 12.0 0.00 0.00 0.00 46 1019.7
20260906091506 87 46 6.0 12.0 0.00 0.00 0.00 47 1019.7
20260906091005 87 51 5.0 10.0 0.00 0.00 0.00 50 1019.7
20260906090506 87 45 5.0 10.0 0.00 0.00 0.00 51 1019.8
20260906090007 87 44 2.0 12.0 0.00 0.00 0.00 49 1019.7
20260906085505 87 46 5.0 9.0 0.00 0.00 0.00 51 1019.8
20260906084506 87 50 4.0 8.0 0.00 0.00 0.00 53 1019.7
20260906083511 86 47 5.0 12.0 0.00 0.00 0.00 53 1019.6
20260906082505 86 43 6.0 12.0 0.00 0.00 0.00 52 1019.7
20260906081506 86 18 4.0 7.0 0.00 0.00 0.00 51 1019.6
20260906081005 85 43 5.0 9.0 0.00 0.00 0.00 51 1019.6
20260906080506 85 48 7.0 13.0 0.00 0.00 0.00 52 1019.5
20260906080006 85 36 5.0 12.0 0.00 0.00 0.00 52 1019.5
20260906075506 85 44 3.0 7.0 0.00 0.00 0.00 51 1019.5
20260906074011 84 53 5.0 10.0 0.00 0.00 0.00 49 1019.4
20260906073505 84 57 4.0 10.0 0.00 0.00 0.00 49 1019.3
20260906073011 84 43 3.0 10.0 0.00 0.00 0.00 50 1019.2
20260906072007 84 42 5.0 12.0 0.00 0.00 0.00 50 1019.1
20260906071511 84 36 3.0 8.0 0.00 0.00 0.00 46 1019.1
20260906071005 84 48 3.0 6.0 0.00 0.00 0.00 45 1019.0
20260906070506 84 52 3.0 10.0 0.00 0.00 0.00 44 1018.9
20260906070006 84 21 2.0 10.0 0.00 0.00 0.00 44 1018.9
20260906065507 84 27 3.0 8.0 0.00 0.00 0.00 44 1018.9
20260906065011 84 47 3.0 9.0 0.00 0.00 0.00 44 1018.9
20260906064505 84 36 3.0 8.0 0.00 0.00 0.00 43 1018.9
20260906064015 84 59 3.0 8.0 0.00 0.00 0.00 42 1018.7
20260906063007 83 56 2.0 5.0 0.00 0.00 0.00 40 1018.7
20260906062506 83 40 2.0 5.0 0.00 0.00 0.00 40 1018.7
20260906062006 82 2 1.0 6.0 0.00 0.00 0.00 39 1018.6
20260906061506 82 20 1.0 3.0 0.00 0.00 0.00 39 1018.6
20260906061006 82 17 1.0 3.0 0.00 0.00 0.00 39 1018.6
20260906060507 81 29 1.0 3.0 0.00 0.00 0.00 39 1018.6
20260906060005 81 45 1.0 3.0 0.00 0.00 0.00 39 1018.5
20260906055515 80 277 1.0 2.0 0.00 0.00 0.00 40 1018.4
20260906055005 80 264 1.0 3.0 0.00 0.00 0.00 41 1018.4
20260906054512 79 262 0.0 2.0 0.00 0.00 0.00 41 1018.4
20260906053006 78 254 1.0 3.0 0.00 0.00 0.00 42 1018.3
20260906052506 77 244 0.0 2.0 0.00 0.00 0.00 43 1018.2
20260906052008 77 247 0.0 2.0 0.00 0.00 0.00 43 1018.1
20260906051506 76 251 0.0 3.0 0.00 0.00 0.00 43 1018.1
20260906051006 76 243 0.0 1.0 0.00 0.00 0.00 44 1018.1
20260906050505 75 243 0.0 1.0 0.00 0.00 0.00 45 1018.1
20260906050008 75 243 0.0 1.0 0.00 0.00 0.00 46 1018.2
20260906045506 75 243 0.0 1.0 0.00 0.00 0.00 45 1018.2
20260906045006 75 243 0.0 1.0 0.00 0.00 0.00 45 1018.1
20260906044505 76 243 0.0 0.0 0.00 0.00 0.00 44 1018.1
20260906044006 76 243 0.0 0.0 0.00 0.00 0.00 44 1018.1
20260906043505 76 243 0.0 0.0 0.00 0.00 0.00 44 1018.0
20260906043005 76 243 0.0 1.0 0.00 0.00 0.00 44 1017.9
20260906042506 76 243 0.0 1.0 0.00 0.00 0.00 44 1018.0
20260906042006 75 243 0.0 1.0 0.00 0.00 0.00 45 1017.9
20260906041507 75 243 0.0 1.0 0.00 0.00 0.00 46 1017.8
20260906041007 75 243 0.0 1.0 0.00 0.00 0.00 46 1017.7
20260906040505 75 243 0.0 0.0 0.00 0.00 0.00 47 1017.7
20260906040005 75 243 0.0 1.0 0.00 0.00 0.00 46 1017.7
20260906035505 76 243 0.0 1.0 0.00 0.00 0.00 45 1017.6
20260906035006 76 243 0.0 1.0 0.00 0.00 0.00 45 1017.6
20260906034505 76 243 0.0 1.0 0.00 0.00 0.00 46 1017.6
20260906034009 76 243 0.0 1.0 0.00 0.00 0.00 46 1017.6
20260906033506 76 243 0.0 1.0 0.00 0.00 0.00 46 1017.6
20260906033006 76 243 0.0 1.0 0.00 0.00 0.00 46 1017.6
20260906032006 76 243 0.0 1.0 0.00 0.00 0.00 47 1017.6
20260906031506 76 243 0.0 1.0 0.00 0.00 0.00 47 1017.6
20260906031006 76 243 0.0 1.0 0.00 0.00 0.00 47 1017.5
20260906030506 76 243 0.0 1.0 0.00 0.00 0.00 47 1017.5
20260906030006 76 243 0.0 1.0 0.00 0.00 0.00 47 1017.5
20260906024505 76 243 0.0 2.0 0.00 0.00 0.00 48 1017.4
20260906023007 76 243 1.0 2.0 0.00 0.00 0.00 48 1017.5
20260906022505 77 243 1.0 2.0 0.00 0.00 0.00 48 1017.5
20260906022011 76 242 1.0 2.0 0.00 0.00 0.00 48 1017.5
20260906021507 76 242 0.0 1.0 0.00 0.00 0.00 48 1017.5
20260906020505 76 242 0.0 1.0 0.00 0.00 0.00 49 1017.4
20260906020006 76 242 0.0 2.0 0.00 0.00 0.00 49 1017.5
20260906015506 76 242 0.0 1.0 0.00 0.00 0.00 49 1017.5
20260906015006 77 242 0.0 1.0 0.00 0.00 0.00 49 1017.5
20260906014506 77 242 0.0 1.0 0.00 0.00 0.00 49 1017.5
20260906014006 77 242 0.0 1.0 0.00 0.00 0.00 48 1017.6
20260906013506 78 242 0.0 1.0 0.00 0.00 0.00 48 1017.6
20260906013006 78 242 0.0 1.0 0.00 0.00 0.00 49 1017.6
20260906012006 78 242 0.0 1.0 0.00 0.00 0.00 50 1017.5
20260906011007 78 242 0.0 1.0 0.00 0.00 0.00 50 1017.5
20260906010505 78 242 0.0 2.0 0.00 0.00 0.00 50 1017.5
20260906010007 78 242 0.0 1.0 0.00 0.00 0.00 51 1017.5
20260906005507 78 242 0.0 2.0 0.00 0.00 0.00 51 1017.5
20260906005007 77 241 1.0 2.0 0.00 0.00 0.00 52 1017.6
20260906004507 77 235 0.0 3.0 0.00 0.00 0.00 52 1017.6
20260906004005 78 249 1.0 3.0 0.00 0.00 0.00 52 1017.5
20260906003507 78 246 1.0 3.0 0.00 0.00 0.00 52 1017.5
20260906003006 78 247 0.0 2.0 0.00 0.00 0.00 53 1017.5
20260906002505 78 249 1.0 3.0 0.00 0.00 0.00 53 1017.5
20260906002005 78 237 0.0 2.0 0.00 0.00 0.00 53 1017.5
20260906001005 78 236 1.0 2.0 0.00 0.00 0.00 53 1017.6
20260906000505 78 235 1.0 3.0 0.00 0.00 0.00 53 1017.6
20260906000006 78 235 1.0 3.0 0.00 0.00 0.00 53 1017.6
20260905235507 78 234 0.0 2.0 0.00 0.00 0.00 52 1017.6
20260905235009 78 234 0.0 2.0 0.00 0.00 0.00 52 1017.7
20260905234011 79 234 0.0 2.0 0.00 0.00 0.00 51 1017.8
20260905233505 79 233 2.0 3.0 0.00 0.00 0.00 50 1017.8
20260905233006 79 241 0.0 2.0 0.00 0.00 0.00 49 1017.8
20260905232506 80 242 0.0 3.0 0.00 0.00 0.00 49 1017.8
20260905232006 80 261 1.0 3.0 0.00 0.00 0.00 49 1017.8
20260905231511 79 263 2.0 3.0 0.00 0.00 0.00 50 1017.8
20260905225505 77 200 0.0 1.0 0.00 0.00 0.00 51 1017.9
20260905225006 77 200 0.0 1.0 0.00 0.00 0.00 51 1017.9
20260905224506 78 200 0.0 1.0 0.00 0.00 0.00 51 1017.9
20260905224006 78 200 0.0 0.0 0.00 0.00 0.00 51 1017.9
20260905222006 79 201 0.0 3.0 0.00 0.00 0.00 51 1017.9
20260905221506 79 204 1.0 2.0 0.00 0.00 0.00 51 1017.8
20260905220506 79 204 1.0 2.0 0.00 0.00 0.00 49 1017.7
20260905220007 80 198 1.0 2.0 0.00 0.00 0.00 48 1017.7
20260905215506 80 199 1.0 3.0 0.00 0.00 0.00 47 1017.6
20260905215006 80 196 2.0 3.0 0.00 0.00 0.00 46 1017.6
20260905214505 80 202 1.0 3.0 0.00 0.00 0.00 45 1017.6
20260905214011 80 190 1.0 3.0 0.00 0.00 0.00 44 1017.6
20260905213506 80 195 2.0 5.0 0.00 0.00 0.00 43 1017.6
20260905213006 80 192 2.0 5.0 0.00 0.00 0.00 42 1017.7
20260905212506 80 200 2.0 3.0 0.00 0.00 0.00 40 1017.7
20260905212006 80 230 1.0 3.0 0.00 0.00 0.00 39 1017.8
20260905211006 80 191 2.0 3.0 0.00 0.00 0.00 36 1017.7
20260905210506 80 195 1.0 3.0 0.00 0.00 0.00 35 1017.7
20260905210006 80 197 2.0 5.0 0.00 0.00 0.00 35 1017.7
20260905205506 80 200 2.0 3.0 0.00 0.00 0.00 35 1017.7
20260905205007 81 205 3.0 6.0 0.00 0.00 0.00 35 1017.6
20260905204507 81 195 2.0 3.0 0.00 0.00 0.00 35 1017.6
20260905203506 81 197 3.0 5.0 0.00 0.00 0.00 35 1017.6
20260905203007 81 202 3.0 6.0 0.00 0.00 0.00 35 1017.7
20260905202017 80 204 3.0 6.0 0.00 0.00 0.00 37 1017.6
20260905200519 80 203 3.0 6.0 0.00 0.00 0.00 38 1017.7
20260905195513 80 202 3.0 6.0 0.00 0.00 0.00 39 1017.8
20260905195019 80 200 3.0 6.0 0.00 0.00 0.00 39 1017.8
20260905194521 80 207 3.0 7.0 0.00 0.00 0.00 40 1017.8
20260905193025 80 199 4.0 6.0 0.00 0.00 0.00 41 1017.7
20260905192021 80 207 3.0 6.0 0.00 0.00 0.00 40 1017.7
20260905191519 80 205 3.0 7.0 0.00 0.00 0.00 40 1017.7
20260905191020 81 206 3.0 7.0 0.00 0.00 0.00 40 1017.6
20260905190521 81 199 3.0 6.0 0.00 0.00 0.00 40 1017.6
20260905190021 81 198 3.0 5.0 0.00 0.00 0.00 40 1017.6
20260905185521 81 195 2.0 3.0 0.00 0.00 0.00 40 1017.6
20260905185020 82 207 2.0 5.0 0.00 0.00 0.00 39 1017.5
20260905184520 82 207 2.0 5.0 0.00 0.00 0.00 39 1017.5
20260905184014 82 211 2.0 5.0 0.00 0.00 0.00 39 1017.5
20260905183022 83 206 2.0 3.0 0.00 0.00 0.00 38 1017.5
20260905182522 83 204 2.0 3.0 0.00 0.00 0.00 38 1017.4
20260905182020 83 210 3.0 5.0 0.00 0.00 0.00 37 1017.4
20260905181519 83 203 2.0 6.0 0.00 0.00 0.00 37 1017.3
20260905181012 84 203 2.0 6.0 0.00 0.00 0.00 36 1017.2
20260905180021 84 203 2.0 3.0 0.00 0.00 0.00 35 1017.1
20260905175519 84 177 1.0 3.0 0.00 0.00 0.00 35 1017.1
20260905175020 85 190 2.0 3.0 0.00 0.00 0.00 34 1017.1
20260905174519 85 214 1.0 3.0 0.00 0.00 0.00 34 1017.0
20260905174020 86 190 1.0 3.0 0.00 0.00 0.00 33 1017.0
20260905173511 86 174 1.0 3.0 0.00 0.00 0.00 33 1016.9
20260905173020 87 201 1.0 3.0 0.00 0.00 0.00 32 1016.9
20260905172512 87 193 1.0 3.0 0.00 0.00 0.00 32 1016.9
20260905172021 87 188 2.0 3.0 0.00 0.00 0.00 31 1016.9
20260905171020 88 193 2.0 3.0 0.00 0.00 0.00 30 1016.9
20260905170519 89 180 3.0 7.0 0.00 0.00 0.00 29 1016.8
20260905170020 89 193 4.0 8.0 0.00 0.00 0.00 29 1016.7
20260905165519 90 190 4.0 12.0 0.00 0.00 0.00 28 1016.7
20260905164520 91 181 5.0 9.0 0.00 0.00 0.00 27 1016.6
20260905164019 92 178 3.0 6.0 0.00 0.00 0.00 26 1016.5
20260905163519 92 175 3.0 7.0 0.00 0.00 0.00 25 1016.5
20260905163021 93 180 3.0 9.0 0.00 0.00 0.00 25 1016.5
20260905162519 93 173 3.0 9.0 0.00 0.00 0.00 25 1016.4
20260905162019 93 177 2.0 5.0 0.00 0.00 0.00 28 1016.4
20260905161512 93 53 1.0 7.0 0.00 0.00 0.00 28 1016.5
20260905160519 93 38 2.0 6.0 0.00 0.00 0.00 28 1016.5
20260905160022 93 44 2.0 8.0 0.00 0.00 0.00 28 1016.5
20260905155517 93 52 4.0 12.0 0.00 0.00 0.00 27 1016.6
20260905155019 93 41 3.0 10.0 0.00 0.00 0.00 27 1016.6
20260905154519 94 50 5.0 10.0 0.00 0.00 0.00 26 1016.6
20260905153519 94 42 5.0 13.0 0.00 0.00 0.00 26 1016.6
20260905153021 94 36 3.0 9.0 0.00 0.00 0.00 26 1016.5
20260905152020 94 30 8.0 15.0 0.00 0.00 0.00 26 1016.4
20260905151019 94 43 9.0 17.0 0.00 0.00 0.00 26 1016.3
20260905150519 95 49 6.0 12.0 0.00 0.00 0.00 25 1016.3
20260905150018 95 50 6.0 12.0 0.00 0.00 0.00 25 1016.4
20260905145519 96 41 3.0 12.0 0.00 0.00 0.00 25 1016.3
20260905145020 96 36 5.0 9.0 0.00 0.00 0.00 25 1016.3
20260905144519 96 50 4.0 8.0 0.00 0.00 0.00 24 1016.4
20260905143518 96 45 6.0 10.0 0.00 0.00 0.00 24 1016.2
20260905143021 97 37 6.0 10.0 0.00 0.00 0.00 24 1016.2
20260905142510 97 47 6.0 10.0 0.00 0.00 0.00 24 1016.2
20260905142020 98 41 3.0 5.0 0.00 0.00 0.00 23 1016.4
20260905141519 99 44 2.0 3.0 0.00 0.00 0.00 21 1016.4